User: anonymous   Login
Location: Unspecified
(0.0000°N, 0.0000°E)
Time: 01:59:04
(UTC+02:00)
Language:

Cosmos 1892 Rocket - Orbit

View from above orbital plane
View from above orbital plane
View from above satellite
View from above satellite

Ground track
Ground track

The orbit data is extracted from the following two-line orbital elements,

1 18422U 87088B   17147.72184234 +.00000080 +00000-0 +68739-5 0  9995
2 18422 082.5121 196.0532 0020567 143.0358 356.5628 14.82925122577693
Epoch (UTC): 27 May 2017 17:19:27
Eccentricity: 0.0020567
inclination: 82.5121°
perigee height: 606 km
apogee height: 634 km
right ascension of ascending node: 196.0532°
argument of perigee: 143.0358°
revolutions per day: 14.82925122
mean anomaly at epoch: 356.5628°
orbit number at epoch: 57769

The dashed part of the orbit path shows where the satellite is in the earth's shadow,  

DLR